Hoquiam, WA
on Saturday, November 17, 2012

Saturday
Previous Day Next Day
Daily Summary
 ActualAverageRecord
Temperature
Mean Temperature °F 45°F  
Max Temperature 51°F 51°F 62°F (1965)
Min Temperature 46°F 40°F 27°F (1955)
Degree Days
Heating Degree Days 16 20  
Month to date heating degree days 303  
Cooling Degree Days 0 0  
Month to date cooling degree days 0  
Year to date cooling degree days 23  
Moisture
Dew Point 46°F   
Average Humidity 91    
Maximum Humidity 100    
Minimum Humidity 86    
Precipitation
Precipitation 0.90 in 0.39 in 2.54 in (1954)
Month to date precipitation 6.22  
Year to date precipitation 52.64  
Wind
Wind Speed 12 mph   
Max Wind Speed 18 mph   
Max Gust Speed 28 mph   
Visibility 7 miles   
Events Rain   

Key: T is trace of precipitation, MM is missing value
Source: NWS Daily Summary
Time(PST)TemperatureDew PointHumidity Pressure Visibility Wind DirectionWind SpeedGust SpeedPrecipitationEvents Conditions
12:53 AM 51.1°F 50.0°F 96% 29.63 in 9.0 miles East 12.7 mph - 0.04 in   Overcast
1:53 AM 51.1°F 48.9°F 92% 29.61 in 9.0 miles East 13.8 mph - 0.00 in   Overcast
2:53 AM 51.1°F 50.0°F 96% 29.59 in 4.0 miles East 8.1 mph - 0.04 in Rain Light Rain
3:53 AM 50.0°F 50.0°F 100% 29.55 in 4.0 miles ENE 8.1 mph - 0.03 in Rain Light Rain
4:53 AM 50.0°F 48.9°F 96% 29.54 in 9.0 miles ENE 8.1 mph - 0.02 in   Overcast
5:11 AM 50.0°F 48.2°F 94% 29.52 in 9.0 miles East 11.5 mph - 0.00 in Rain Light Rain
5:22 AM 51.8°F 48.2°F 88% 29.51 in 10.0 miles East 12.7 mph - 0.00 in Rain Light Rain
5:35 AM 51.8°F 48.2°F 88% 29.50 in 10.0 miles East 15.0 mph - 0.00 in   Overcast
5:53 AM 51.1°F 48.9°F 92% 29.51 in 10.0 miles East 12.7 mph - 0.00 in   Overcast
6:48 AM 51.8°F 48.2°F 88% 29.49 in 10.0 miles ENE 11.5 mph - 0.01 in   Overcast
6:53 AM 51.1°F 48.9°F 92% 29.49 in 10.0 miles ENE 11.5 mph - 0.01 in   Overcast
7:53 AM 51.1°F 48.9°F 92% 29.48 in 5.0 miles East 13.8 mph - 0.04 in Rain Light Rain
8:20 AM 48.2°F 46.4°F 93% 29.50 in 3.0 miles WSW 9.2 mph 21.9 mph 0.10 in Rain Rain
8:27 AM 48.2°F 46.4°F 93% 29.50 in 4.0 miles WSW 16.1 mph 21.9 mph 0.10 in Rain Light Rain
8:44 AM 48.2°F 46.4°F 93% 29.51 in 3.0 miles SW 10.4 mph - 0.14 in Rain Light Rain
8:53 AM 48.9°F 48.0°F 97% 29.52 in 2.5 miles SSW 8.1 mph - 0.15 in Rain Light Rain
9:00 AM 48.2°F 48.2°F 100% 29.51 in 4.0 miles SSW 9.2 mph - 0.01 in Rain Light Rain
9:18 AM 48.2°F 46.4°F 93% 29.52 in 1.8 miles SSW 9.2 mph - 0.04 in Rain Light Rain
9:26 AM 48.2°F 48.2°F 100% 29.53 in 1.8 miles SW 15.0 mph - 0.05 in Rain Light Rain
9:41 AM 48.2°F 46.4°F 93% 29.54 in 2.5 miles SW 16.1 mph - 0.08 in Rain Light Rain
9:51 AM 48.2°F 46.4°F 93% 29.54 in 4.0 miles SSW 17.3 mph - 0.09 in Rain Light Rain
9:53 AM 48.0°F 46.0°F 93% 29.55 in 4.0 miles SSW 13.8 mph - 0.10 in Rain Light Rain
10:03 AM 48.2°F 46.4°F 93% 29.54 in 6.0 miles SSW 13.8 mph - 0.01 in Rain Light Rain
10:20 AM 48.2°F 46.4°F 93% 29.55 in 4.0 miles SW 12.7 mph - 0.03 in Rain Light Rain
10:34 AM 48.2°F 46.4°F 93% 29.56 in 6.0 miles SSW 11.5 mph - 0.05 in Rain Light Rain
10:53 AM 46.9°F 44.1°F 90% 29.58 in 3.0 miles SW 13.8 mph - 0.10 in Rain Light Rain
11:53 AM 46.0°F 44.1°F 93% 29.59 in 4.0 miles South 9.2 mph - 0.09 in Rain Light Rain
12:53 PM 46.0°F 43.0°F 89% 29.57 in 10.0 miles SE 12.7 mph - 0.03 in Rain Light Rain
1:53 PM 46.0°F 42.1°F 86% 29.57 in 10.0 miles SSE 13.8 mph - 0.00 in Rain Light Rain
2:39 PM 46.4°F 42.8°F 87% 29.57 in 10.0 miles SSE 6.9 mph - 0.01 in   Mostly Cloudy
2:53 PM 46.0°F 43.0°F 89% 29.58 in 10.0 miles SSE 8.1 mph - 0.01 in   Overcast
3:40 PM 46.4°F 42.8°F 87% 29.59 in 4.0 miles SSE 16.1 mph 25.3 mph 0.02 in Rain Light Rain
3:53 PM 46.9°F 43.0°F 86% 29.60 in 10.0 miles ESE 12.7 mph - 0.02 in Rain Light Rain
4:53 PM 46.9°F 43.0°F 86% 29.60 in 10.0 miles SSE 13.8 mph - 0.01 in   Overcast
5:49 PM 46.4°F 42.8°F 87% 29.59 in 10.0 miles SE 16.1 mph 24.2 mph N/A   Overcast
5:53 PM 46.9°F 43.0°F 86% 29.60 in 10.0 miles SE 16.1 mph - N/A   Overcast
6:34 PM 46.4°F 42.8°F 87% 29.62 in 2.5 miles SSE 18.4 mph 25.3 mph 0.07 in Rain Rain
6:51 PM 46.4°F 44.6°F 93% 29.62 in 5.0 miles SSE 18.4 mph 24.2 mph 0.13 in Rain Light Rain
6:53 PM 46.9°F 43.0°F 86% 29.63 in 6.0 miles SSE 17.3 mph 24.2 mph 0.14 in Rain Light Rain
7:09 PM 46.4°F 42.8°F 87% 29.63 in 10.0 miles South 15.0 mph 21.9 mph 0.00 in   Overcast
7:17 PM 46.4°F 44.6°F 93% 29.63 in 5.0 miles South 15.0 mph - 0.03 in Rain Rain
7:28 PM 46.4°F 42.8°F 87% 29.62 in 8.0 miles SSE 17.3 mph 27.6 mph 0.04 in Rain Light Rain
7:53 PM 46.9°F 43.0°F 86% 29.63 in 10.0 miles SE 13.8 mph - 0.04 in   Mostly Cloudy
8:53 PM 46.9°F 44.1°F 90% 29.65 in 10.0 miles SSE 16.1 mph - 0.00 in   Scattered Clouds
9:53 PM 46.0°F 43.0°F 89% 29.65 in 10.0 miles SE 11.5 mph - N/A   Mostly Cloudy
10:53 PM 46.0°F 43.0°F 89% 29.67 in 10.0 miles ESE 10.4 mph - N/A   Clear
11:53 PM 46.9°F 45.0°F 93% 29.68 in 10.0 miles SSE 8.1 mph - 0.03 in   Overcast
Moon Phase
Nov. 17 Nov. 20 Nov. 28 Dec. 06 Dec. 13
Sunrise:07:22 AM (PST) Moon Rise:11:11 AM (PST)11/17
Sunset:04:38 PM (PST) Moon Set:08:56 PM (PST)11/17

Copyright © 2014 The Weather Underground, Inc.